GW6733 Weather Reports


Display with metric or nautical units.
time (UTC)temp
F
wind
direction
speed
MPH
gust
MPH
rain 1hr
in
rain 24hr
in
rain mn
in
humidity
%
barometer
mb
20260505011046 64 15 2.0 2.0 0.00 0.00 0.00 49 1010.1
20260505010541 64 5 2.0 2.0 0.00 0.00 0.00 48 1010.0
20260505010038 65 28 2.0 2.0 0.00 0.00 0.00 48 1009.8
20260505005534 65 35 2.0 2.0 0.00 0.00 0.00 46 1009.7
20260505005032 66 37 2.0 2.0 0.00 0.00 0.00 45 1009.7
20260505004529 66 69 0.0 2.0 0.00 0.00 0.00 44 1009.5
20260505004026 66 345 0.0 3.0 0.00 0.00 0.00 46 1009.6
20260505003523 67 20 1.0 3.0 0.00 0.00 0.00 45 1009.4
20260505003020 68 66 2.0 2.0 0.00 0.00 0.00 42 1009.3
20260505002515 68 43 2.0 2.0 0.00 0.00 0.00 41 1009.3
20260505002014 68 211 2.0 3.0 0.00 0.00 0.00 41 1009.2
20260505001511 69 132 0.0 2.0 0.00 0.00 0.00 41 1009.2
20260505001008 69 52 0.0 2.0 0.00 0.00 0.00 41 1009.3
20260505000506 69 73 2.0 2.0 0.00 0.00 0.00 40 1009.3
20260505000003 70 172 0.0 2.0 0.00 0.00 0.00 40 1009.3
20260504235500 70 255 0.0 2.0 0.00 0.00 0.00 40 1009.4
20260504234956 70 72 0.0 4.0 0.00 0.00 0.00 39 1009.2
20260504234453 70 200 2.0 9.0 0.00 0.00 0.00 39 1009.0
20260504233950 71 195 2.0 5.0 0.00 0.00 0.00 39 1009.3
20260504233445 71 277 1.0 5.0 0.00 0.00 0.00 39 1009.3
20260504232943 71 208 1.0 3.0 0.00 0.00 0.00 38 1009.2
20260504232440 71 71 1.0 4.0 0.00 0.00 0.00 38 1009.3
20260504231937 71 115 4.0 5.0 0.00 0.00 0.00 38 1009.4
20260504231433 71 102 1.0 6.0 0.00 0.00 0.00 39 1009.4
20260504230929 71 198 2.0 5.0 0.00 0.00 0.00 38 1009.3
20260504230426 72 86 2.0 8.0 0.00 0.00 0.00 37 1009.3
20260504225926 72 224 4.0 5.0 0.00 0.00 0.00 37 1009.2
20260504225422 72 256 2.0 6.0 0.00 0.00 0.00 38 1009.2
20260504224919 72 277 2.0 7.0 0.00 0.00 0.00 37 1009.3
20260504224415 72 165 2.0 8.0 0.00 0.00 0.00 37 1009.6
20260504223913 73 242 3.0 9.0 0.00 0.00 0.00 37 1009.3
20260504223408 73 209 5.0 8.0 0.00 0.00 0.00 37 1009.4
20260504222904 72 274 4.0 5.0 0.00 0.00 0.00 37 1009.4
20260504222402 72 173 3.0 9.0 0.00 0.00 0.00 38 1009.5
20260504221900 72 207 3.0 5.0 0.00 0.00 0.00 38 1009.1
20260504221356 73 209 3.0 6.0 0.00 0.00 0.00 37 1009.5
20260504220854 73 216 11.0 12.0 0.00 0.00 0.00 36 1009.5
20260504220350 74 207 3.0 11.0 0.00 0.00 0.00 36 1009.7
20260504215847 74 202 4.0 10.0 0.00 0.00 0.00 35 1009.5
20260504215344 74 208 4.0 12.0 0.00 0.00 0.00 35 1009.6
20260504214840 74 199 4.0 7.0 0.00 0.00 0.00 35 1009.4
20260504214337 74 220 3.0 7.0 0.00 0.00 0.00 36 1009.6
20260504213833 74 216 6.0 14.0 0.00 0.00 0.00 35 1009.4
20260504213329 74 221 3.0 5.0 0.00 0.00 0.00 36 1009.4
20260504212827 74 209 1.0 13.0 0.00 0.00 0.00 36 1009.4
20260504212323 74 283 5.0 7.0 0.00 0.00 0.00 35 1009.6
20260504211821 74 282 6.0 12.0 0.00 0.00 0.00 36 1009.5
20260504211316 74 194 7.0 12.0 0.00 0.00 0.00 35 1009.4
20260504210814 74 153 4.0 13.0 0.00 0.00 0.00 34 1009.5
20260504210311 74 153 3.0 4.0 0.00 0.00 0.00 35 1009.4
20260504205809 74 266 2.0 13.0 0.00 0.00 0.00 35 1009.4
20260504205306 74 188 3.0 9.0 0.00 0.00 0.00 36 1009.5
20260504204804 74 226 7.0 11.0 0.00 0.00 0.00 35 1009.4
20260504204302 74 213 7.0 7.0 0.00 0.00 0.00 35 1009.4
20260504203801 74 216 3.0 11.0 0.00 0.00 0.00 35 1009.5
20260504203258 74 196 4.0 10.0 0.00 0.00 0.00 35 1009.5
20260504202758 74 133 6.0 8.0 0.00 0.00 0.00 36 1009.6
20260504202256 73 183 6.0 9.0 0.00 0.00 0.00 35 1009.7
20260504201753 74 226 5.0 15.0 0.00 0.00 0.00 34 1009.5
20260504201250 74 211 2.0 9.0 0.00 0.00 0.00 36 1009.7
20260504200748 74 166 2.0 11.0 0.00 0.00 0.00 38 1009.6
20260504200243 74 225 2.0 10.0 0.00 0.00 0.00 35 1010.0
20260504195740 73 113 1.0 7.0 0.00 0.00 0.00 35 1010.1
20260504195236 73 225 6.0 17.0 0.00 0.00 0.00 36 1010.2
20260504194733 73 218 8.0 12.0 0.00 0.00 0.00 35 1010.0
20260504194229 73 177 2.0 9.0 0.00 0.00 0.00 35 1010.2
20260504193726 73 222 8.0 16.0 0.00 0.00 0.00 36 1010.3
20260504193223 73 143 4.0 11.0 0.00 0.00 0.00 38 1010.3
20260504192721 72 218 6.0 9.0 0.00 0.00 0.00 35 1010.5
20260504192219 72 174 5.0 12.0 0.00 0.00 0.00 35 1010.8
20260504191718 72 47 1.0 10.0 0.00 0.00 0.00 35 1010.8
20260504191214 72 314 3.0 9.0 0.00 0.00 0.00 34 1011.0
20260504190709 72 235 2.0 6.0 0.00 0.00 0.00 36 1011.1
20260504190206 72 318 4.0 7.0 0.00 0.00 0.00 37 1010.9
20260504185703 71 82 1.0 13.0 0.00 0.00 0.00 38 1011.1
20260504185159 71 226 5.0 14.0 0.00 0.00 0.00 35 1010.9
20260504184655 72 191 2.0 9.0 0.00 0.00 0.00 36 1011.3
20260504184150 71 198 5.0 6.0 0.00 0.00 0.00 38 1011.5
20260504183648 72 234 8.0 13.0 0.00 0.00 0.00 36 1011.4
20260504183145 71 135 2.0 12.0 0.00 0.00 0.00 38 1011.4
20260504182643 71 107 4.0 6.0 0.00 0.00 0.00 36 1011.6
20260504182140 72 223 7.0 10.0 0.00 0.00 0.00 37 1011.6
20260504181637 71 334 2.0 5.0 0.00 0.00 0.00 34 1011.7
20260504181135 71 213 8.0 10.0 0.00 0.00 0.00 37 1011.7
20260504180634 71 186 4.0 7.0 0.00 0.00 0.00 37 1011.8
20260504180132 71 194 2.0 5.0 0.00 0.00 0.00 36 1012.2
20260504175629 70 214 6.0 9.0 0.00 0.00 0.00 37 1011.8
20260504175125 70 211 5.0 10.0 0.00 0.00 0.00 37 1012.1
20260504174624 70 223 6.0 13.0 0.00 0.00 0.00 36 1012.0
20260504174120 69 224 4.0 9.0 0.00 0.00 0.00 36 1011.7
20260504173617 69 131 4.0 7.0 0.00 0.00 0.00 37 1012.0
20260504173115 70 186 6.0 15.0 0.00 0.00 0.00 35 1012.2
20260504172611 69 184 2.0 5.0 0.00 0.00 0.00 39 1012.3
20260504172108 69 229 7.0 10.0 0.00 0.00 0.00 37 1012.0
20260504171604 69 229 9.0 10.0 0.00 0.00 0.00 35 1012.2
20260504171101 69 220 4.0 15.0 0.00 0.00 0.00 36 1012.2
20260504170556 68 174 2.0 9.0 0.00 0.00 0.00 37 1012.4
20260504150941 65 22 1.0 5.0 0.00 0.00 0.00 39 1013.6
20260504150437 65 233 7.0 13.0 0.00 0.00 0.00 37 1013.7
20260504140904 61 243 8.0 12.0 0.00 0.00 0.00 39 1014.1
20260504140400 61 204 7.0 11.0 0.00 0.00 0.00 38 1014.1
20260504130325 53 121 1.0 4.0 0.00 0.00 0.00 54 1014.4
20260504120248 48 336 1.0 3.0 0.00 0.00 0.00 58 1014.8
20260504110716 44 66 0.0 2.0 0.00 0.00 0.00 65 1014.6
20260504110212 44 35 1.0 2.0 0.00 0.00 0.00 65 1014.8
20260504100136 39 51 2.0 3.0 0.00 0.00 0.00 77 1014.9
20260504081529 40 45 2.0 2.0 0.00 0.00 0.00 74 1015.3
20260504081025 40 59 2.0 3.0 0.00 0.00 0.00 72 1015.2
20260504080521 40 78 2.0 3.0 0.00 0.00 0.00 74 1015.2
20260504050334 44 20 0.0 2.0 0.00 0.00 0.00 65 1015.4
20260504045831 44 57 2.0 2.0 0.00 0.00 0.00 67 1015.5
20260504045326 44 54 2.0 3.0 0.00 0.00 0.00 69 1015.4
20260504044823 44 59 2.0 2.0 0.00 0.00 0.00 68 1015.5
20260504044320 45 78 2.0 2.0 0.00 0.00 0.00 66 1015.6
20260504043818 45 51 2.0 2.0 0.00 0.00 0.00 62 1015.7
20260504043314 45 19 1.0 2.0 0.00 0.00 0.00 57 1015.6
20260504042812 45 29 1.0 3.0 0.00 0.00 0.00 60 1015.6
20260504042308 45 46 2.0 2.0 0.00 0.00 0.00 61 1015.4
20260504041805 45 326 0.0 2.0 0.00 0.00 0.00 60 1015.4
20260504041301 45 29 2.0 2.0 0.00 0.00 0.00 57 1015.6
20260504040757 45 33 2.0 2.0 0.00 0.00 0.00 58 1015.6
20260504040255 45 49 2.0 3.0 0.00 0.00 0.00 61 1015.4
20260504035750 45 53 2.0 3.0 0.00 0.00 0.00 62 1015.4
20260504035248 45 52 2.0 2.0 0.00 0.00 0.00 62 1015.5
20260504034745 45 59 2.0 2.0 0.00 0.00 0.00 65 1015.4
20260504034242 45 57 2.0 2.0 0.00 0.00 0.00 62 1015.1
20260504033740 45 31 1.0 1.0 0.00 0.00 0.00 64 1015.2
20260504033237 46 76 1.0 2.0 0.00 0.00 0.00 64 1015.3
20260504032734 46 57 2.0 2.0 0.00 0.00 0.00 59 1015.3
20260504032231 46 46 2.0 3.0 0.00 0.00 0.00 58 1015.1
20260504031728 46 52 2.0 2.0 0.00 0.00 0.00 59 1015.5
20260504031225 45 30 2.0 2.0 0.00 0.00 0.00 56 1015.2
20260504030721 45 41 2.0 3.0 0.00 0.00 0.00 59 1015.1
20260504030218 45 37 0.0 2.0 0.00 0.00 0.00 60 1014.9
20260504025715 47 87 2.0 2.0 0.00 0.00 0.00 61 1014.9
20260504025211 47 49 2.0 3.0 0.00 0.00 0.00 57 1014.8
20260504024709 47 49 2.0 2.0 0.00 0.00 0.00 55 1014.8
20260504024205 47 16 2.0 3.0 0.00 0.00 0.00 53 1015.0
20260504023702 46 28 2.0 2.0 0.00 0.00 0.00 58 1014.8
20260504023158 46 64 1.0 2.0 0.00 0.00 0.00 58 1015.0
20260504022654 46 50 2.0 3.0 0.00 0.00 0.00 56 1014.9
20260504022150 47 40 2.0 2.0 0.00 0.00 0.00 60 1014.9
20260504021648 47 10 0.0 0.0 0.00 0.00 0.00 58 1015.1
20260504021145 47 43 1.0 2.0 0.00 0.00 0.00 54 1014.9
20260504020642 47 46 2.0 3.0 0.00 0.00 0.00 53 1014.9
20260504020137 48 50 2.0 2.0 0.00 0.00 0.00 53 1014.9
20260504015635 48 54 2.0 2.0 0.00 0.00 0.00 56 1014.9
20260504015131 48 66 2.0 2.0 0.00 0.00 0.00 53 1014.8
20260504014626 48 49 3.0 3.0 0.00 0.00 0.00 54 1014.9
20260504014124 49 52 1.0 2.0 0.00 0.00 0.00 54 1014.9
20260504013621 49 52 2.0 3.0 0.00 0.00 0.00 53 1014.8
20260504013118 49 48 2.0 2.0 0.00 0.00 0.00 51 1014.9
20260504012616 49 52 2.0 2.0 0.00 0.00 0.00 51 1015.0
20260504012113 49 45 2.0 2.0 0.00 0.00 0.00 49 1014.8
20260504011610 49 18 2.0 3.0 0.00 0.00 0.00 50 1014.6